Year,Month,Day,Hour,Minute,Value (Times are PST for temperature in C)
2009,03,31,00,00,6.30
2009,03,31,00,01,6.30
2009,03,31,00,02,6.30
2009,03,31,00,03,6.30
2009,03,31,00,04,6.30
2009,03,31,00,05,6.30
2009,03,31,00,06,6.30
2009,03,31,00,07,6.30
2009,03,31,00,08,6.30
2009,03,31,00,09,6.30
2009,03,31,00,10,6.30
2009,03,31,00,11,6.30
2009,03,31,00,12,6.30
2009,03,31,00,13,6.30
2009,03,31,00,14,6.30
2009,03,31,00,15,6.30
2009,03,31,00,16,6.30
2009,03,31,00,17,6.30
2009,03,31,00,18,6.40
2009,03,31,00,19,6.40
2009,03,31,00,20,6.40
2009,03,31,00,21,6.40
2009,03,31,00,22,6.40
2009,03,31,00,23,6.40
2009,03,31,00,24,6.40
2009,03,31,00,25,6.40
2009,03,31,00,26,6.40
2009,03,31,00,27,6.40
2009,03,31,00,28,6.40
2009,03,31,00,29,6.40
2009,03,31,00,30,6.40
2009,03,31,00,31,6.40
2009,03,31,00,32,6.40
2009,03,31,00,33,6.40
2009,03,31,00,34,6.30
2009,03,31,00,35,6.30
2009,03,31,00,36,6.30
2009,03,31,00,37,6.30
2009,03,31,00,38,6.30
2009,03,31,00,39,6.30
2009,03,31,00,40,6.30
2009,03,31,00,41,6.30
2009,03,31,00,42,6.30
2009,03,31,00,43,6.30
2009,03,31,00,44,6.30
2009,03,31,00,45,6.30
2009,03,31,00,46,6.30
2009,03,31,00,47,6.30
2009,03,31,00,48,6.30
2009,03,31,00,49,6.30
2009,03,31,00,50,6.30
2009,03,31,00,51,6.30
2009,03,31,00,52,6.30
2009,03,31,00,53,6.30
2009,03,31,00,54,6.30
2009,03,31,00,55,6.30
2009,03,31,00,56,6.30
2009,03,31,00,57,6.30
2009,03,31,00,58,6.30
2009,03,31,00,59,6.30
2009,03,31,01,00,6.30
2009,03,31,01,01,6.30
2009,03,31,01,02,6.30
2009,03,31,01,03,6.30
2009,03,31,01,04,6.30
2009,03,31,01,05,6.20
2009,03,31,01,06,6.20
2009,03,31,01,07,6.20
2009,03,31,01,08,6.20
2009,03,31,01,09,6.20
2009,03,31,01,10,6.20
2009,03,31,01,11,6.20
2009,03,31,01,12,6.20
2009,03,31,01,13,6.20
2009,03,31,01,14,6.20
2009,03,31,01,15,6.20
2009,03,31,01,16,6.20
2009,03,31,01,17,6.20
2009,03,31,01,18,6.20
2009,03,31,10,02,7.20
2009,03,31,10,03,7.20
2009,03,31,10,04,7.20
2009,03,31,10,05,7.20
2009,03,31,10,06,7.20
2009,03,31,10,07,7.30
2009,03,31,10,08,7.30
2009,03,31,10,09,7.30
2009,03,31,10,10,7.30
2009,03,31,10,11,7.30
2009,03,31,10,12,7.30
2009,03,31,10,13,7.30
2009,03,31,10,14,7.30
2009,03,31,10,15,7.20
2009,03,31,10,16,7.20
2009,03,31,10,17,7.20
2009,03,31,10,18,7.00
2009,03,31,10,19,6.90
2009,03,31,10,20,6.70
2009,03,31,10,21,6.60
2009,03,31,10,22,6.60
2009,03,31,10,23,6.50
2009,03,31,10,24,6.40
2009,03,31,10,25,6.40
2009,03,31,10,26,6.30
2009,03,31,10,27,6.20
2009,03,31,10,28,6.20
2009,03,31,10,29,6.10
2009,03,31,10,30,6.00
2009,03,31,10,31,6.00
2009,03,31,10,32,5.90
2009,03,31,10,33,5.90
2009,03,31,10,34,5.90
2009,03,31,10,35,5.90
2009,03,31,10,36,5.80
2009,03,31,10,37,5.80
2009,03,31,10,38,5.90
2009,03,31,10,39,5.90
2009,03,31,10,40,5.90
2009,03,31,10,41,5.90
2009,03,31,10,42,6.00
2009,03,31,10,43,6.10
2009,03,31,10,44,6.10
2009,03,31,10,45,6.20
2009,03,31,10,46,6.20
2009,03,31,10,47,6.30
2009,03,31,10,48,6.30
2009,03,31,10,49,6.30
2009,03,31,10,50,6.30
2009,03,31,10,51,6.30
2009,03,31,10,52,6.30
2009,03,31,10,53,6.30
2009,03,31,10,54,6.40
2009,03,31,10,55,6.40
2009,03,31,10,56,6.40
2009,03,31,10,57,6.40
2009,03,31,10,58,6.40
2009,03,31,10,59,6.40
2009,03,31,11,00,6.40
2009,03,31,11,01,6.50
2009,03,31,11,02,6.50
2009,03,31,11,03,6.50
2009,03,31,11,04,6.50
2009,03,31,11,05,6.50
2009,03,31,11,06,6.60
2009,03,31,11,07,6.60
2009,03,31,11,08,6.60
2009,03,31,11,09,6.60
2009,03,31,11,10,6.70
2009,03,31,11,11,6.70
2009,03,31,11,12,6.70
2009,03,31,11,13,6.70
2009,03,31,11,14,6.70
2009,03,31,11,15,6.70
2009,03,31,11,16,6.70
2009,03,31,11,17,6.70
2009,03,31,11,18,6.70
2009,03,31,11,19,6.70
2009,03,31,11,20,6.80
2009,03,31,11,21,6.80
2009,03,31,11,22,6.80
2009,03,31,11,23,6.80
2009,03,31,11,24,6.90
2009,03,31,11,25,6.90
2009,03,31,11,26,6.90
2009,03,31,11,27,6.90
2009,03,31,11,28,6.90
2009,03,31,11,29,6.90
2009,03,31,11,30,7.00
2009,03,31,11,31,7.00
2009,03,31,11,32,7.00
2009,03,31,11,33,7.10
2009,03,31,11,34,7.10
2009,03,31,11,35,7.10
2009,03,31,11,36,7.20
2009,03,31,11,37,7.20
2009,03,31,11,38,7.30
2009,03,31,11,39,7.30
2009,03,31,11,40,7.40
2009,03,31,11,41,7.40
2009,03,31,11,42,7.50
2009,03,31,11,43,7.50
2009,03,31,11,44,7.50
2009,03,31,11,45,7.50
2009,03,31,11,46,7.50
2009,03,31,11,47,7.50
2009,03,31,11,48,7.50
2009,03,31,11,49,7.50
2009,03,31,11,50,7.60
2009,03,31,11,51,7.60
2009,03,31,11,52,7.60
2009,03,31,11,53,7.60
2009,03,31,11,54,7.60
2009,03,31,11,55,7.60
2009,03,31,11,56,7.60
2009,03,31,11,57,7.70
2009,03,31,11,58,7.70
2009,03,31,11,59,7.80
2009,03,31,12,00,7.80
2009,03,31,12,01,7.80
2009,03,31,12,02,7.80
2009,03,31,12,03,7.80
2009,03,31,12,04,7.80
2009,03,31,12,05,7.70
2009,03,31,12,06,7.70
2009,03,31,12,07,7.70
2009,03,31,12,08,7.70
2009,03,31,12,09,7.70
2009,03,31,12,10,7.70
2009,03,31,12,11,7.70
2009,03,31,12,12,7.70
2009,03,31,12,13,7.70
2009,03,31,12,14,7.80
2009,03,31,12,15,7.70
2009,03,31,12,16,7.70
2009,03,31,12,17,7.80
2009,03,31,12,18,7.80
2009,03,31,12,19,7.80
2009,03,31,12,20,7.70
2009,03,31,12,21,7.60
2009,03,31,12,22,7.50
2009,03,31,12,23,7.40
2009,03,31,12,24,7.50
2009,03,31,12,25,7.50
2009,03,31,12,26,7.60
2009,03,31,12,27,7.60
2009,03,31,12,28,7.60
2009,03,31,12,29,7.60
2009,03,31,12,30,7.60
2009,03,31,12,31,7.60
2009,03,31,12,32,7.60
2009,03,31,12,33,7.60
2009,03,31,12,34,7.70
2009,03,31,12,35,7.70
2009,03,31,12,36,7.80
2009,03,31,12,37,7.80
2009,03,31,12,38,7.80
2009,03,31,12,39,7.80
2009,03,31,12,40,7.80
2009,03,31,12,41,7.70
2009,03,31,12,42,7.60
2009,03,31,12,43,7.60
2009,03,31,12,44,7.50
2009,03,31,12,45,7.50
2009,03,31,12,46,7.50
2009,03,31,12,47,7.40
2009,03,31,12,48,7.40
2009,03,31,12,49,7.30
2009,03,31,12,50,7.30
2009,03,31,12,51,7.30
2009,03,31,12,52,7.30
2009,03,31,12,53,7.30
2009,03,31,12,54,7.30
2009,03,31,12,55,7.30
2009,03,31,12,56,7.40
2009,03,31,12,57,7.50
2009,03,31,12,58,7.40
2009,03,31,12,59,7.50
2009,03,31,13,00,7.50
2009,03,31,13,01,7.60
2009,03,31,13,02,7.60
2009,03,31,13,03,7.60
2009,03,31,13,04,7.60
2009,03,31,13,05,7.60
2009,03,31,13,06,7.70
2009,03,31,13,07,7.70
2009,03,31,13,08,7.80
2009,03,31,13,09,7.80
2009,03,31,13,10,7.90
2009,03,31,13,11,7.90
2009,03,31,13,12,7.80
2009,03,31,13,13,7.90
2009,03,31,13,14,7.90
2009,03,31,13,15,8.00
2009,03,31,13,16,8.10
2009,03,31,13,17,8.10
2009,03,31,13,18,8.00
2009,03,31,13,19,8.00
2009,03,31,13,20,8.00
2009,03,31,13,21,7.90
2009,03,31,13,22,7.90
2009,03,31,13,23,7.90
2009,03,31,13,24,7.90
2009,03,31,13,25,7.90
2009,03,31,13,26,7.90
2009,03,31,13,27,8.00
2009,03,31,13,28,8.10
2009,03,31,13,29,8.20
2009,03,31,13,30,8.20
2009,03,31,13,31,8.20
2009,03,31,13,32,8.10
2009,03,31,13,33,8.10
2009,03,31,13,34,8.00
2009,03,31,13,35,7.90
2009,03,31,13,36,7.90
2009,03,31,13,37,7.80
2009,03,31,13,38,7.70
2009,03,31,13,39,7.70
2009,03,31,13,40,7.70
2009,03,31,13,41,7.80
2009,03,31,13,42,7.80
2009,03,31,13,43,7.90
2009,03,31,13,44,7.90
2009,03,31,13,45,7.90
2009,03,31,13,46,7.90
2009,03,31,13,47,7.90
2009,03,31,13,48,7.80
2009,03,31,13,49,7.80
2009,03,31,13,50,7.80
2009,03,31,13,51,7.90
2009,03,31,13,52,7.90
2009,03,31,13,53,8.00
2009,03,31,13,54,7.90
2009,03,31,13,55,7.90
2009,03,31,13,56,7.90
2009,03,31,13,57,7.90
2009,03,31,13,58,8.00
2009,03,31,13,59,8.00
2009,03,31,14,00,8.00
2009,03,31,14,01,8.00
2009,03,31,14,02,7.90
2009,03,31,14,03,7.90
2009,03,31,14,04,7.90
2009,03,31,14,05,8.00
2009,03,31,14,06,8.00
2009,03,31,14,07,8.00
2009,03,31,14,08,7.90
2009,03,31,14,09,7.90
2009,03,31,14,10,7.90
2009,03,31,14,11,7.80
2009,03,31,14,12,7.80
2009,03,31,14,13,7.80
2009,03,31,14,14,7.80
2009,03,31,14,15,7.90
2009,03,31,14,16,7.90
2009,03,31,14,17,8.00
2009,03,31,14,18,8.10
2009,03,31,14,19,8.20
2009,03,31,14,20,8.30
2009,03,31,14,21,8.30
2009,03,31,14,22,8.30
2009,03,31,14,23,8.30
2009,03,31,14,24,8.30
2009,03,31,14,25,8.30
2009,03,31,14,26,8.30
2009,03,31,14,27,8.40
2009,03,31,14,28,8.40
2009,03,31,14,29,8.50
2009,03,31,14,30,8.60
2009,03,31,14,31,8.60
2009,03,31,14,32,8.60
2009,03,31,14,33,8.70
2009,03,31,14,34,8.70
2009,03,31,14,35,8.70
2009,03,31,14,36,8.70
2009,03,31,14,37,8.80
2009,03,31,14,38,8.80
2009,03,31,14,39,8.90
2009,03,31,14,40,8.90
2009,03,31,14,41,9.00
2009,03,31,14,42,9.00
2009,03,31,14,43,9.00
2009,03,31,14,44,8.90
2009,03,31,14,45,8.80
2009,03,31,14,46,8.80
2009,03,31,14,47,8.70
2009,03,31,14,48,8.70
2009,03,31,14,49,8.60
2009,03,31,14,50,8.60
2009,03,31,14,51,8.50
2009,03,31,14,52,8.40
2009,03,31,14,53,8.40
2009,03,31,14,54,8.40
2009,03,31,14,55,8.30
2009,03,31,14,56,8.20
2009,03,31,14,57,8.10
2009,03,31,14,58,8.20
2009,03,31,14,59,8.20
2009,03,31,15,00,8.20
2009,03,31,15,01,8.30
2009,03,31,15,02,8.30
2009,03,31,15,03,8.30
2009,03,31,15,04,8.30
2009,03,31,15,05,8.30
2009,03,31,15,06,8.30
2009,03,31,15,07,8.20
2009,03,31,15,08,8.20
2009,03,31,15,09,8.20
2009,03,31,15,10,8.20
2009,03,31,15,11,8.30
2009,03,31,15,12,8.40
2009,03,31,15,13,8.50
2009,03,31,15,14,8.40
2009,03,31,15,15,8.50
2009,03,31,15,16,8.60
2009,03,31,15,17,8.60
2009,03,31,15,18,8.70
2009,03,31,15,19,8.60
2009,03,31,15,20,8.60
2009,03,31,15,21,8.60
2009,03,31,15,22,8.50
2009,03,31,15,23,8.40
2009,03,31,15,24,8.30
2009,03,31,15,25,8.30
2009,03,31,15,26,8.30
2009,03,31,15,27,8.30
2009,03,31,15,28,8.40
2009,03,31,15,29,8.40
2009,03,31,15,30,8.50
2009,03,31,15,31,8.50
2009,03,31,15,32,8.40
2009,03,31,15,33,8.40
2009,03,31,15,34,8.40
2009,03,31,15,35,8.50
2009,03,31,15,36,8.50
2009,03,31,15,37,8.50
2009,03,31,15,38,8.50
2009,03,31,15,39,8.50
2009,03,31,15,40,8.40
2009,03,31,15,41,8.40
2009,03,31,15,42,8.30
2009,03,31,15,43,8.30
2009,03,31,15,44,8.30
2009,03,31,15,45,8.30
2009,03,31,15,46,8.30
2009,03,31,15,47,8.30
2009,03,31,15,48,8.30
2009,03,31,15,49,8.30
2009,03,31,15,50,8.30
2009,03,31,15,51,8.20
2009,03,31,15,52,8.20
2009,03,31,15,53,8.20
2009,03,31,15,54,8.10
2009,03,31,15,55,8.00
2009,03,31,15,56,7.80
2009,03,31,15,57,7.80
2009,03,31,15,58,7.70
2009,03,31,15,59,7.60
2009,03,31,16,00,7.60
2009,03,31,16,01,7.60
2009,03,31,16,02,7.70
2009,03,31,16,03,7.70
2009,03,31,16,04,7.70
2009,03,31,16,05,7.70
2009,03,31,16,06,7.60
2009,03,31,16,07,7.70
2009,03,31,16,08,7.70
2009,03,31,16,09,7.70
2009,03,31,16,10,7.70
2009,03,31,16,11,7.80
2009,03,31,16,12,7.90
2009,03,31,16,13,8.00
2009,03,31,16,14,8.10
2009,03,31,16,15,8.10
2009,03,31,16,16,8.00
2009,03,31,16,17,7.90
2009,03,31,16,18,7.80
2009,03,31,16,19,7.80
2009,03,31,16,20,7.80
2009,03,31,16,21,7.80
2009,03,31,16,22,7.70
2009,03,31,16,23,7.70
2009,03,31,16,24,7.60
2009,03,31,16,25,7.60
2009,03,31,16,26,7.60
2009,03,31,16,27,7.60
2009,03,31,16,28,7.50
2009,03,31,16,29,7.50
2009,03,31,16,30,7.40
2009,03,31,16,31,7.40
2009,03,31,16,32,7.30
2009,03,31,16,33,7.30
2009,03,31,16,34,7.30
2009,03,31,16,35,7.20
2009,03,31,16,36,7.20
2009,03,31,16,37,7.20
2009,03,31,16,38,7.20
2009,03,31,16,39,7.20
2009,03,31,16,40,7.20
2009,03,31,16,41,7.20
2009,03,31,16,42,7.20
2009,03,31,16,43,7.20
2009,03,31,16,44,7.30
2009,03,31,16,45,7.30
2009,03,31,16,46,7.20
2009,03,31,16,47,7.20
2009,03,31,16,48,7.20
2009,03,31,16,49,7.10
2009,03,31,16,50,7.10
2009,03,31,16,51,7.10
2009,03,31,16,52,7.10
2009,03,31,16,53,7.10
2009,03,31,16,54,7.00
2009,03,31,16,55,7.00
2009,03,31,16,56,7.00
2009,03,31,16,57,7.00
2009,03,31,16,58,7.00
2009,03,31,16,59,6.90
2009,03,31,17,00,6.90
2009,03,31,17,01,6.90
2009,03,31,17,02,7.00
2009,03,31,17,03,7.00
2009,03,31,17,04,7.00
2009,03,31,17,05,7.00
2009,03,31,17,06,7.10
2009,03,31,17,07,7.00
2009,03,31,17,08,6.90
2009,03,31,17,09,6.80
2009,03,31,17,10,6.80
2009,03,31,17,11,6.70
2009,03,31,17,12,6.70
2009,03,31,17,13,6.80
2009,03,31,17,14,6.70
2009,03,31,17,15,6.70
2009,03,31,17,16,6.70
2009,03,31,17,17,6.70
2009,03,31,17,18,6.60
2009,03,31,17,19,6.60
2009,03,31,17,20,6.60
2009,03,31,17,21,6.50
2009,03,31,17,22,6.50
2009,03,31,17,23,6.40
2009,03,31,17,24,6.40
2009,03,31,17,25,6.30
2009,03,31,17,26,6.30
2009,03,31,17,27,6.30
2009,03,31,17,28,6.20
2009,03,31,17,29,6.20
2009,03,31,17,30,6.10
2009,03,31,17,31,6.00
2009,03,31,17,32,6.00
2009,03,31,17,33,5.90
2009,03,31,17,34,5.90
2009,03,31,17,35,5.90
2009,03,31,17,36,5.80
2009,03,31,17,37,5.70
2009,03,31,17,38,5.70
2009,03,31,17,39,5.60
2009,03,31,17,40,5.60
2009,03,31,17,41,5.60
2009,03,31,17,42,5.60
2009,03,31,17,43,5.60
2009,03,31,17,44,5.60
2009,03,31,17,45,5.60
2009,03,31,17,46,5.50
2009,03,31,17,47,5.50
2009,03,31,17,48,5.50
2009,03,31,17,49,5.40
2009,03,31,17,50,5.40
2009,03,31,17,51,5.40
2009,03,31,17,52,5.40
2009,03,31,17,53,5.40
2009,03,31,17,54,5.30
2009,03,31,17,55,5.30
2009,03,31,17,56,5.20
2009,03,31,17,57,5.20
2009,03,31,17,58,5.20
2009,03,31,17,59,5.20
2009,03,31,18,00,5.20
2009,03,31,18,01,5.20
2009,03,31,18,02,5.20
2009,03,31,18,03,5.20
2009,03,31,18,04,5.20
2009,03,31,18,05,5.20
2009,03,31,18,06,5.20
2009,03,31,18,07,5.20
2009,03,31,18,08,5.20
2009,03,31,18,09,5.10
2009,03,31,18,10,5.10
2009,03,31,18,11,5.10
2009,03,31,18,12,5.10
2009,03,31,18,13,5.10
2009,03,31,18,14,5.10
2009,03,31,18,15,5.10
2009,03,31,18,16,5.10
2009,03,31,18,17,5.10
2009,03,31,18,18,5.10
2009,03,31,18,19,5.20
2009,03,31,18,20,5.20
2009,03,31,18,21,5.20
2009,03,31,18,22,5.20
2009,03,31,18,23,5.30
2009,03,31,18,24,5.30
2009,03,31,18,25,5.30
2009,03,31,18,26,5.30
2009,03,31,18,27,5.30
2009,03,31,18,28,5.30
2009,03,31,18,29,5.30
2009,03,31,18,30,5.40
2009,03,31,18,31,5.40
2009,03,31,18,32,5.40
2009,03,31,18,33,5.50
2009,03,31,18,34,5.60
2009,03,31,18,35,5.60
2009,03,31,18,36,5.70
2009,03,31,18,37,5.80
2009,03,31,18,38,5.90
2009,03,31,18,39,6.00
2009,03,31,18,40,6.00
2009,03,31,18,41,6.10
2009,03,31,18,42,6.10
2009,03,31,18,43,6.20
2009,03,31,18,44,6.20
2009,03,31,18,45,6.20
2009,03,31,18,46,6.20
2009,03,31,18,47,6.30
2009,03,31,18,48,6.30
2009,03,31,18,49,6.30
2009,03,31,18,50,6.30
2009,03,31,18,51,6.40
2009,03,31,18,52,6.40
2009,03,31,18,53,6.40
2009,03,31,18,54,6.30
2009,03,31,18,55,6.30
2009,03,31,18,56,6.30
2009,03,31,18,57,6.20
2009,03,31,18,58,6.10
2009,03,31,18,59,6.00
2009,03,31,19,00,5.90
2009,03,31,19,01,5.90
2009,03,31,19,02,5.90
2009,03,31,19,03,6.00
2009,03,31,19,04,6.00
2009,03,31,19,05,6.00
2009,03,31,19,06,5.90
2009,03,31,19,07,5.90
2009,03,31,19,08,5.90
2009,03,31,19,09,5.80
2009,03,31,19,10,5.80
2009,03,31,19,11,5.80
2009,03,31,19,12,5.80
2009,03,31,19,13,5.80
2009,03,31,19,14,5.80
2009,03,31,19,15,5.80
2009,03,31,19,16,5.80
2009,03,31,19,17,5.80
2009,03,31,19,18,5.80
2009,03,31,19,19,5.80
2009,03,31,19,20,5.80
2009,03,31,19,21,5.80
2009,03,31,19,22,5.80
2009,03,31,19,23,5.80
2009,03,31,19,24,5.80
2009,03,31,19,25,5.80
2009,03,31,19,26,5.80
2009,03,31,19,27,5.80
2009,03,31,19,28,5.70
2009,03,31,19,29,5.70
2009,03,31,19,30,5.70
2009,03,31,19,31,5.70
2009,03,31,19,32,5.70
2009,03,31,19,33,5.70
2009,03,31,19,34,5.70
2009,03,31,19,35,5.70
2009,03,31,19,36,5.70
2009,03,31,19,37,5.70
2009,03,31,19,38,5.70
2009,03,31,19,39,5.60
2009,03,31,19,40,5.60
2009,03,31,19,41,5.60
2009,03,31,19,42,5.60
2009,03,31,19,43,5.60
2009,03,31,19,44,5.60
2009,03,31,19,45,5.60
2009,03,31,19,46,5.60
2009,03,31,19,47,5.60
2009,03,31,19,48,5.60
2009,03,31,19,49,5.50
2009,03,31,19,50,5.50
2009,03,31,19,51,5.50
2009,03,31,19,52,5.50
2009,03,31,19,53,5.50
2009,03,31,19,54,5.50
2009,03,31,19,55,5.50
2009,03,31,19,56,5.40
2009,03,31,19,57,5.40
2009,03,31,19,58,5.40
2009,03,31,19,59,5.40
2009,03,31,20,00,5.40
2009,03,31,20,01,5.40
2009,03,31,20,02,5.40
2009,03,31,20,03,5.40
2009,03,31,20,04,5.40
2009,03,31,20,05,5.40
2009,03,31,20,06,5.40
2009,03,31,20,07,5.40
2009,03,31,20,08,5.40
2009,03,31,20,09,5.40
2009,03,31,20,10,5.30
2009,03,31,20,11,5.30
2009,03,31,20,12,5.30
2009,03,31,20,13,5.30
2009,03,31,20,14,5.30
2009,03,31,20,15,5.30
2009,03,31,20,16,5.30
2009,03,31,20,17,5.30
2009,03,31,20,18,5.30
2009,03,31,20,19,5.30
2009,03,31,20,20,5.30
2009,03,31,20,21,5.30
2009,03,31,20,22,5.30
2009,03,31,20,23,5.30
2009,03,31,20,24,5.30
2009,03,31,20,25,5.20
2009,03,31,20,26,5.20
2009,03,31,20,27,5.20
2009,03,31,20,28,5.20
2009,03,31,20,29,5.10
2009,03,31,20,30,5.10
2009,03,31,20,31,5.10
2009,03,31,20,32,5.10
2009,03,31,20,33,5.10
2009,03,31,20,34,5.10
2009,03,31,20,35,5.00
2009,03,31,20,36,5.00
2009,03,31,20,37,5.00
2009,03,31,20,38,4.90
2009,03,31,20,39,4.90
2009,03,31,20,40,4.90
2009,03,31,20,41,4.90
2009,03,31,20,42,4.90
2009,03,31,20,43,4.90
2009,03,31,20,44,5.00
2009,03,31,20,45,5.00
2009,03,31,20,46,5.00
2009,03,31,20,47,5.00
2009,03,31,20,48,5.00
2009,03,31,20,49,5.00
2009,03,31,20,50,5.00
2009,03,31,20,51,5.00
2009,03,31,20,52,5.00
2009,03,31,20,53,5.00
2009,03,31,20,54,5.00
2009,03,31,20,55,5.00
2009,03,31,20,56,5.00
2009,03,31,20,57,5.00
2009,03,31,20,58,5.00
2009,03,31,20,59,5.00
2009,03,31,21,00,5.00
2009,03,31,21,01,5.00
2009,03,31,21,02,5.00
2009,03,31,21,03,5.00
2009,03,31,21,04,4.90
2009,03,31,21,05,4.90
2009,03,31,21,06,4.90
2009,03,31,21,07,4.90
2009,03,31,21,08,4.80
2009,03,31,21,09,4.80
2009,03,31,21,10,4.80
2009,03,31,21,11,4.70
2009,03,31,21,12,4.70
2009,03,31,21,13,4.70
2009,03,31,21,14,4.70
2009,03,31,21,15,4.60
2009,03,31,21,16,4.60
2009,03,31,21,17,4.60
2009,03,31,21,18,4.60
2009,03,31,21,19,4.60
2009,03,31,21,20,4.50
2009,03,31,21,21,4.50
2009,03,31,21,22,4.50
2009,03,31,21,23,4.50
2009,03,31,21,24,4.40
2009,03,31,21,25,4.40
2009,03,31,21,26,4.40
2009,03,31,21,27,4.40
2009,03,31,21,28,4.40
2009,03,31,21,29,4.40
2009,03,31,21,30,4.30
2009,03,31,21,31,4.30
2009,03,31,21,32,4.30
2009,03,31,21,33,4.30
2009,03,31,21,34,4.30
2009,03,31,21,35,4.30
2009,03,31,21,36,4.30
2009,03,31,21,37,4.30
2009,03,31,21,38,4.30
2009,03,31,21,39,4.30
2009,03,31,21,40,4.30
2009,03,31,21,41,4.30
2009,03,31,21,42,4.20
2009,03,31,21,43,4.20
2009,03,31,21,44,4.20
2009,03,31,21,45,4.20
2009,03,31,21,46,4.20
2009,03,31,21,47,4.20
2009,03,31,21,48,4.20
2009,03,31,21,49,4.20
2009,03,31,21,50,4.20
2009,03,31,21,51,4.20
2009,03,31,21,52,4.20
2009,03,31,21,53,4.20
2009,03,31,21,54,4.20
2009,03,31,21,55,4.10
2009,03,31,21,56,4.10
2009,03,31,21,57,4.10
2009,03,31,21,58,4.10
2009,03,31,21,59,4.10
2009,03,31,22,00,4.10
2009,03,31,22,01,4.10
2009,03,31,22,02,4.10
2009,03,31,22,03,4.10
2009,03,31,22,04,4.10
2009,03,31,22,05,4.10
2009,03,31,22,06,4.10
2009,03,31,22,07,4.00
2009,03,31,22,08,4.00
2009,03,31,22,09,4.00
2009,03,31,22,10,4.00
2009,03,31,22,11,4.00
2009,03,31,22,12,4.10
2009,03,31,22,13,4.10
2009,03,31,22,14,4.10
2009,03,31,22,15,4.10
2009,03,31,22,16,4.10
2009,03,31,22,17,4.10
2009,03,31,22,18,4.10
2009,03,31,22,19,4.20
2009,03,31,22,20,4.20
2009,03,31,22,21,4.30
2009,03,31,22,22,4.30
2009,03,31,22,23,4.40
2009,03,31,22,24,4.40
2009,03,31,22,25,4.40
2009,03,31,22,26,4.50
2009,03,31,22,27,4.50
2009,03,31,22,28,4.60
2009,03,31,22,29,4.70
2009,03,31,22,30,4.70
2009,03,31,22,31,4.70
2009,03,31,22,32,4.70
2009,03,31,22,33,4.70
2009,03,31,22,34,4.70
2009,03,31,22,35,4.70
2009,03,31,22,36,4.70
2009,03,31,22,37,4.80
2009,03,31,22,38,4.80
2009,03,31,22,39,4.80
2009,03,31,22,40,4.80
2009,03,31,22,41,4.80
2009,03,31,22,42,4.80
2009,03,31,22,43,4.70
2009,03,31,22,44,4.80
2009,03,31,22,45,4.80
2009,03,31,22,46,4.70
2009,03,31,22,47,4.80
2009,03,31,22,48,4.70
2009,03,31,22,49,4.70
2009,03,31,22,50,4.70
2009,03,31,22,51,4.70
2009,03,31,22,52,4.70
2009,03,31,22,53,4.70
2009,03,31,22,54,4.70
2009,03,31,22,55,4.70
2009,03,31,22,56,4.70
2009,03,31,22,57,4.70
2009,03,31,22,58,4.70
2009,03,31,22,59,4.70
2009,03,31,23,00,4.60
2009,03,31,23,01,4.60
2009,03,31,23,02,4.60
2009,03,31,23,03,4.60
2009,03,31,23,04,4.60
2009,03,31,23,05,4.60
2009,03,31,23,06,4.60
2009,03,31,23,07,4.60
2009,03,31,23,08,4.60
2009,03,31,23,09,4.60
2009,03,31,23,10,4.60
2009,03,31,23,11,4.60
2009,03,31,23,12,4.60
2009,03,31,23,13,4.60
2009,03,31,23,14,4.60
2009,03,31,23,15,4.60
2009,03,31,23,16,4.60
2009,03,31,23,17,4.60
2009,03,31,23,18,4.60
2009,03,31,23,19,4.60
2009,03,31,23,20,4.50
2009,03,31,23,21,4.50
2009,03,31,23,22,4.50
2009,03,31,23,23,4.50
2009,03,31,23,24,4.50
2009,03,31,23,25,4.50
2009,03,31,23,26,4.50
2009,03,31,23,27,4.50
2009,03,31,23,28,4.50
2009,03,31,23,29,4.60
2009,03,31,23,30,4.60
2009,03,31,23,31,4.60
2009,03,31,23,32,4.50
2009,03,31,23,33,4.50
2009,03,31,23,34,4.50
2009,03,31,23,35,4.50
2009,03,31,23,36,4.50
2009,03,31,23,37,4.50
2009,03,31,23,38,4.50
2009,03,31,23,39,4.50
2009,03,31,23,40,4.50
2009,03,31,23,41,4.40
2009,03,31,23,42,4.40
2009,03,31,23,43,4.40
2009,03,31,23,44,4.40
2009,03,31,23,45,4.40
2009,03,31,23,46,4.40
2009,03,31,23,47,4.40
2009,03,31,23,48,4.30
2009,03,31,23,49,4.30
2009,03,31,23,50,4.30
2009,03,31,23,51,4.30
2009,03,31,23,52,4.30
2009,03,31,23,53,4.30
2009,03,31,23,54,4.30
2009,03,31,23,55,4.30
2009,03,31,23,56,4.30
2009,03,31,23,57,4.30
2009,03,31,23,58,4.30
2009,03,31,23,59,4.30
